Погода Мыс Болванский

Погода Мыс Болванский : погода сейчас, прогноз погоды и архив. Всё, что Вы хотите узнать о погоде Мыс Болванский!

Поиск расширенной информации на нашем сайте:

Другие новости

Новости СМИ2

Главная страница сайта

Новости сайта

03.07.2017

Напоминаем, что на нашем специализированном сайте Метеоцентр.Азия вы можете получить высокодетализированные автоматические прогнозы погоды по пунктам России, СНГ и мира в авиационном формате (включающие направление и скорость ветра, видимость, явления погоды, количество и форму облачности, нижнюю и верхнюю границу облачности).


Погода Мыс Болванский - сегодня

Время (UTC), дата Ветер
(°,м/с) 
Видим.   Явления Облачность Т
(°С)
Тd
(°С)
f(%) Тe
(°С)
Pmin
(гПа)
dP
(гПа)
Po
(мм)
O2
(г/м3)
Тmin Tmax R s Состояние
почвы
15 10.08.18 330 (СЗ) 12-15{16}  10 км    10/0 средняя 
[Ac und]
+7.4 +5 85 +4  997.2  747  292    +8.5       
03 11.08.18 350 (С) 8{16}  10 км    10/10 600 м 
[Sc]
+5.4 +4.9 97 +2  996.3  0.2  746  294  +5.5    0.1    влажная 
09 11.08.18 330 (СЗ) 10 км    10/4 300 м средняя 
[Sc|Ac trans]
+6.3 +5.4 94 +4  997.1  0.7  747  293           
12 11.08.18 340 (С) 10 км    10/0 средняя 
[Ac und]
+6.6 +5.5 93 +4  997.5  0.4  747  293           
18 11.08.18 360 (С) 6{10}  10 км    10/10 300 м 
[St]
+4.9 +4.9 100 +2  997.7  0.2  747  295           
00 12.08.18 010 (С) 7{11}  0500 м  туман  ?/?  
+4.2 +4.2 100 +1  998  -0.1  748  296           
03 12.08.18 360 (С) 10 км  {туман}  10/10 300 м 
[Sc]
+4.8 +4.8 100 +2  998.2  0.2  748  295  +4.2        влажная 
06 12.08.18 330 (СЗ) 10 км  {туман}  10/0 средняя 
[Ac und]
+5.4 +5.3 99 +3  997.8  -0.4  747  294           
09 12.08.18 330 (СЗ) 10 км    10/0 средняя 
[Ac und]
+5.7 +5.5 99 +4  998  0.1  748  294           
12 12.08.18 300 (СЗ) 10 км    10/0 средняя 
[Ac und]
+6.4 +5.7 95 +5  998.2  0.2  748  293           
15 12.08.18 280 (З) 8{10}  10 км    10/10 600 м 
[Sc]
+6.8 +6.2 96 +4  997  -1.2  747  293    +7.1       
18 12.08.18 300 (СЗ) 6{10}  10 км    10/10 600 м 
[Sc]
+6.7 +6.4 98 +5  996.2  -0.8  746  292           
21 12.08.18 300 (СЗ) 10 км    10/10 600 м 
[Sc]
+6.4 +6.1 98 +4  995.6  -0.6  746  293           
00 13.08.18 300 (СЗ) 10 км    10/10 600 м 
[Sc]
+5.9 +5.8 99 +4  995.1  -0.5  745  293           
06 13.08.18 280 (З) 4000 м  дымка  10/10 300 м 
[St]
+6.5 +6.5 100 +4  994.4  745  292           
18 13.08.18 тихо ()   10 км    10/10 600 м 
[Sc]
+5.6 +4.6 93 +6  990.6  -2.2  742  292           
21 13.08.18 070 (В) 10 км    10/10 600 м 
[Sc]
+5 +4.6 97 +3  989  -1.6  741  292           
00 14.08.18 110 (В) 10 км  {ливн. осадки}  10/10 600 м 
[Sc]
+5.4 +5.2 99 +5  988.2  -0.8  740  292           
03 14.08.18 030 (СВ) 4000 м  дымка  10/10 600 м 
[Sc]
+5.8 +5.8 100 +4  987.9  -0.3  740  291  +4.2    0.1    влажная 
06 14.08.18 040 (СВ) 10 км  в посл. час морось{дождь}  10/3 300 м средняя 
[Sc|Ac und]
+6 +5.7 98 +5  988.4  0.5  740  291           
09 14.08.18 010 (С) 10 км    10/6 600 м средняя 
[Sc|Ac und]
+6.8 +6.3 97 +6  990.1  1.8  742  291           
12 14.08.18 330 (СЗ) 10 км    10/1 600 м средняя 
[Sc|Ac und]
+6.9 +6.4 97 +6  992  1.8  743  291           
06 15.08.18 290 (З) 10 км    10/10 600 м 
[Sc]
+6.6 +6.4 99 +4  1002.1  1.5  751  294           
12 15.08.18 300 (СЗ) 5{11}  10 км    10/10 600 м 
[Sc]
+6.5 +6.5 100 +5  1004.9  1.5  753  295           
18 15.08.18 280 (З) 4000 м  слаб. дождь  10/0 средняя 
[As op]
+6.2 +6.2 100 +5  1006.2  0.4  754  296           
Время (UTC), дата Ветер
(°,м/с) 
Видим.   Явления Облачность Т
(°С)
Тd
(°С)
f(%) Тe
(°С)
Pmin
(гПа)
dP
(гПа)
Po
(мм)
O2
(г/м3)
Тmin Tmax R s Состояние
почвы

Для получения пояснительной информации подведите курсор к названию столбца.

ПОГОДА Мыс Болванский - архив

Всё, что Вы хотите узнать о погоде Мыс Болванский - удобно и подробно!

Выберите нужную дату (начиная с 1 января 2015* года) и нажмите кнопку "Найти".
Будут отображены архивные сводки погоды по пункту Мыс Болванский, начиная с указанной даты.


Отображать данные в формате CSV (для использования в таблицах Excel)


Внимание! Наш архив погоды предназначен исключительно для личного некоммерческого использования в познавательных целях. Если Вам необходимы официальные справки о состоянии погоды (для производственных, юридических, коммерческих и т.п. целей), обращайтесь в органы Росгидромета.

*Примечание: данная дата относится к архиву по метеостанциям СССР (Россия, СНГ, Балтия).
Архив по метеостанциям Зарубежной Европы и Азии (кроме Китая) хранится 10 дней, по другим регионам земного шара (Китай, Африка, Америка, Австралия, Океания) - 1 день.

Мыс Болванский - район местоположения метеостанции


Название, широта, долгота, высота метеостанции:
Мыс Болванский 70.4°ш. 59.1°д. 13 м над ур. моря [Российская Федерация]

Дополнительная информация

В oтличие oт бoльшинства пoгoдных сайтoв мы публикуем пoдрoбную метеoинфoрмацию в детальнoм прoфессиoнальнoм фoрмате.

Характеристики температуры и влажнoсти вoздуха измеряются на высoте 2 м в тени вдали oт зданий и деревьев.
Скoрoсть ветра измеряется на высoте 10 м (на урoвне рoста челoвека скoрoсть ветра ниже в 1.5-2 раза). Если метеoстанция нахoдится в гoрoде или в лесу, тo скoрoсть ветра занижена на 2-4 м/с пo сравнению с oткрытым местoм. Скoрoсть ветра над акватoриями крупных рек и oзёр, а также на вершинах хoлмoв на 2-5 м/с выше, чем в oбычных услoвиях.
Атмoсфернoе давление в разных тoчках местнoсти мoжет значительнo oтличаться oт давления на метеoстанции, в зависимoсти oт услoвий рельефа (при пoдъёме на 10 м давление пoнижается примернo на 1 мм рт.ст.).